Time,TemperatureF,DewpointF,PressureIn,WindDirection,WindDirectionDegrees,WindSpeedMPH,WindSpeedGustMPH,Humidity,HourlyPrecipIn,Conditions,Clouds,dailyrainin,SoftwareType,DateUTC
2013-11-25 00:01:00,16.9,10.9,29.65,NW,310,13.0,21.0,77,0.00,,,0.00,meteohub,2013-11-25 05:01:00,
2013-11-25 00:02:00,16.9,10.9,29.65,NNW,340,8.0,21.0,77,0.00,,,0.00,meteohub,2013-11-25 05:02:00,
2013-11-25 00:03:00,16.9,10.9,29.65,WNW,296,7.0,21.0,77,0.00,,,0.00,meteohub,2013-11-25 05:03:00,
2013-11-25 00:08:00,16.9,10.9,29.65,NW,310,5.0,23.0,77,0.00,,,0.00,meteohub,2013-11-25 05:08:00,
2013-11-25 00:09:00,16.9,10.9,29.66,NNW,348,6.0,23.0,77,0.00,,,0.00,meteohub,2013-11-25 05:09:00,
2013-11-25 00:12:00,16.9,10.6,29.66,NW,306,6.0,23.0,76,0.00,,,0.00,meteohub,2013-11-25 05:12:00,
2013-11-25 00:17:00,17.1,10.6,29.66,NNE,17,6.0,15.0,75,0.00,,,0.00,meteohub,2013-11-25 05:17:00,
2013-11-25 00:22:00,17.1,10.2,29.66,NNW,348,20.0,20.0,74,0.00,,,0.00,meteohub,2013-11-25 05:22:00,
2013-11-25 00:28:00,17.1,10.2,29.67,NNE,19,4.0,20.0,74,0.00,,,0.00,meteohub,2013-11-25 05:28:00,
2013-11-25 00:33:00,17.1,10.2,29.68,North,0,7.0,20.0,74,0.00,,,0.00,meteohub,2013-11-25 05:33:00,
2013-11-25 00:38:00,17.1,9.9,29.68,WNW,289,10.0,20.0,73,0.00,,,0.00,meteohub,2013-11-25 05:38:00,
2013-11-25 00:43:00,17.1,9.9,29.68,NNE,16,9.0,22.0,73,0.00,,,0.00,meteohub,2013-11-25 05:43:00,
2013-11-25 00:48:00,17.1,9.9,29.68,North,9,6.0,22.0,73,0.00,,,0.00,meteohub,2013-11-25 05:48:00,
2013-11-25 00:53:00,17.1,10.2,29.68,West,263,3.0,22.0,74,0.00,,,0.00,meteohub,2013-11-25 05:53:00,
2013-11-25 00:58:00,17.1,10.2,29.68,North,10,10.0,19.0,74,0.00,,,0.00,meteohub,2013-11-25 05:58:00,
2013-11-25 01:03:00,17.1,10.2,29.69,NNW,345,5.0,14.0,74,0.00,,,0.00,meteohub,2013-11-25 06:03:00,
2013-11-25 01:09:00,17.1,10.6,29.69,WNW,293,2.0,14.0,75,0.00,,,0.00,meteohub,2013-11-25 06:09:00,
2013-11-25 01:14:00,17.1,10.6,29.69,NNW,340,4.0,14.0,75,0.00,,,0.00,meteohub,2013-11-25 06:14:00,
2013-11-25 01:19:00,16.9,10.4,29.70,NE,43,2.0,14.0,75,0.00,,,0.00,meteohub,2013-11-25 06:19:00,
2013-11-25 01:24:00,16.9,10.0,29.70,NNW,336,7.0,15.0,74,0.00,,,0.00,meteohub,2013-11-25 06:24:00,
2013-11-25 01:29:00,16.9,10.0,29.71,North,0,5.0,21.0,74,0.00,,,0.00,meteohub,2013-11-25 06:29:00,
2013-11-25 01:34:00,16.9,10.0,29.71,North,5,5.0,21.0,74,0.00,,,0.00,meteohub,2013-11-25 06:34:00,
2013-11-25 01:39:00,16.9,10.0,29.71,West,272,1.0,21.0,74,0.00,,,0.00,meteohub,2013-11-25 06:39:00,
2013-11-25 01:45:00,17.1,9.9,29.71,NW,304,1.0,18.0,73,0.00,,,0.00,meteohub,2013-11-25 06:45:00,
2013-11-25 01:50:00,17.1,9.9,29.72,NW,320,8.0,18.0,73,0.00,,,0.00,meteohub,2013-11-25 06:50:00,
2013-11-25 01:55:00,17.1,10.2,29.73,West,273,11.0,18.0,74,0.00,,,0.00,meteohub,2013-11-25 06:55:00,
2013-11-25 02:00:00,17.1,10.8,29.73,NNE,27,1.0,16.0,76,0.00,,,0.00,meteohub,2013-11-25 07:00:00,
2013-11-25 02:05:00,16.9,11.3,29.73,NNW,336,3.0,16.0,78,0.00,,,0.00,meteohub,2013-11-25 07:05:00,
2013-11-25 02:10:00,16.7,11.1,29.73,NNW,347,2.0,16.0,78,0.00,,,0.00,meteohub,2013-11-25 07:10:00,
2013-11-25 02:15:00,16.5,11.1,29.73,NNE,16,7.0,9.0,79,0.00,,,0.00,meteohub,2013-11-25 07:15:00,
2013-11-25 02:21:00,16.7,10.8,29.74,West,275,3.0,10.0,77,0.00,,,0.00,meteohub,2013-11-25 07:21:00,
2013-11-25 02:26:00,16.7,10.8,29.74,NW,315,4.0,10.0,77,0.00,,,0.00,meteohub,2013-11-25 07:26:00,
2013-11-25 02:31:00,16.7,10.4,29.74,WNW,298,3.0,10.0,76,0.00,,,0.00,meteohub,2013-11-25 07:31:00,
2013-11-25 02:36:00,16.9,10.4,29.75,North,350,2.0,10.0,75,0.00,,,0.00,meteohub,2013-11-25 07:36:00,
2013-11-25 02:41:00,16.9,10.4,29.74,SW,228,1.0,10.0,75,0.00,,,0.00,meteohub,2013-11-25 07:41:00,
2013-11-25 02:46:00,16.9,10.4,29.75,NNW,347,3.0,13.0,75,0.00,,,0.00,meteohub,2013-11-25 07:46:00,
2013-11-25 02:51:00,16.7,9.9,29.75,NNW,347,6.0,13.0,74,0.00,,,0.00,meteohub,2013-11-25 07:51:00,
2013-11-25 02:56:00,16.9,9.7,29.75,West,262,1.0,12.0,73,0.00,,,0.00,meteohub,2013-11-25 07:56:00,
2013-11-25 03:02:00,16.9,9.5,29.75,NNW,327,11.0,11.0,72,0.00,,,0.00,meteohub,2013-11-25 08:02:00,
2013-11-25 03:07:00,17.1,9.3,29.75,WNW,291,9.0,17.0,71,0.00,,,0.00,meteohub,2013-11-25 08:07:00,
2013-11-25 03:12:00,17.1,9.3,29.76,NNW,335,2.0,17.0,71,0.00,,,0.00,meteohub,2013-11-25 08:12:00,
2013-11-25 03:17:00,17.1,9.7,29.76,NW,317,4.0,17.0,72,0.00,,,0.00,meteohub,2013-11-25 08:17:00,
2013-11-25 03:22:00,16.9,10.0,29.77,NNW,336,4.0,15.0,74,0.00,,,0.00,meteohub,2013-11-25 08:22:00,
2013-11-25 03:27:00,16.5,10.2,29.77,North,0,1.0,15.0,76,0.00,,,0.00,meteohub,2013-11-25 08:27:00,
2013-11-25 03:32:00,16.3,10.0,29.77,West,271,3.0,14.0,76,0.00,,,0.00,meteohub,2013-11-25 08:32:00,
2013-11-25 03:37:00,16.2,10.2,29.78,NW,318,0.0,11.0,77,0.00,,,0.00,meteohub,2013-11-25 08:37:00,
2013-11-25 03:42:00,16.2,9.9,29.78,SSW,195,3.0,12.0,76,0.00,,,0.00,meteohub,2013-11-25 08:42:00,
2013-11-25 03:47:00,16.2,9.7,29.78,NW,310,6.0,17.0,75,0.00,,,0.00,meteohub,2013-11-25 08:47:00,
2013-11-25 03:52:00,16.2,9.3,29.79,NNW,346,1.0,17.0,74,0.00,,,0.00,meteohub,2013-11-25 08:52:00,
2013-11-25 03:57:00,16.2,9.3,29.79,NW,309,4.0,17.0,74,0.00,,,0.00,meteohub,2013-11-25 08:57:00,
2013-11-25 04:02:00,16.2,9.3,29.79,NE,41,3.0,9.0,74,0.00,,,0.00,meteohub,2013-11-25 09:02:00,
2013-11-25 04:07:00,16.2,9.0,29.79,North,350,0.0,10.0,73,0.00,,,0.00,meteohub,2013-11-25 09:07:00,
2013-11-25 04:12:00,16.0,8.8,29.79,WNW,289,3.0,10.0,73,0.00,,,0.00,meteohub,2013-11-25 09:12:00,
2013-11-25 04:17:00,16.0,8.6,29.80,NW,326,1.0,10.0,72,0.00,,,0.00,meteohub,2013-11-25 09:17:00,
2013-11-25 04:22:00,16.0,8.6,29.81,NNE,22,1.0,11.0,72,0.00,,,0.00,meteohub,2013-11-25 09:22:00,
2013-11-25 04:27:00,16.0,8.6,29.81,NW,306,6.0,12.0,72,0.00,,,0.00,meteohub,2013-11-25 09:27:00,
2013-11-25 04:32:00,16.0,8.2,29.81,NW,320,1.0,12.0,71,0.00,,,0.00,meteohub,2013-11-25 09:32:00,
2013-11-25 04:37:00,16.0,8.2,29.81,NE,44,6.0,11.0,71,0.00,,,0.00,meteohub,2013-11-25 09:37:00,
2013-11-25 04:42:00,15.8,8.1,29.82,North,355,8.0,18.0,71,0.00,,,0.00,meteohub,2013-11-25 09:42:00,
2013-11-25 04:47:00,15.6,7.9,29.82,North,355,7.0,18.0,71,0.00,,,0.00,meteohub,2013-11-25 09:47:00,
2013-11-25 04:52:00,15.6,7.9,29.82,West,265,9.0,18.0,71,0.00,,,0.00,meteohub,2013-11-25 09:52:00,
2013-11-25 04:57:00,15.6,7.9,29.83,NW,317,1.0,13.0,71,0.00,,,0.00,meteohub,2013-11-25 09:57:00,
2013-11-25 05:02:00,15.6,7.9,29.83,WNW,292,4.0,13.0,71,0.00,,,0.00,meteohub,2013-11-25 10:02:00,
2013-11-25 05:07:00,15.6,7.9,29.84,NE,42,2.0,13.0,71,0.00,,,0.00,meteohub,2013-11-25 10:07:00,
2013-11-25 05:12:00,15.4,7.7,29.84,NE,51,4.0,13.0,71,0.00,,,0.00,meteohub,2013-11-25 10:12:00,
2013-11-25 05:17:00,15.4,7.7,29.84,North,355,3.0,12.0,71,0.00,,,0.00,meteohub,2013-11-25 10:17:00,
2013-11-25 05:22:00,15.4,7.7,29.85,North,5,0.0,12.0,71,0.00,,,0.00,meteohub,2013-11-25 10:22:00,
2013-11-25 05:27:00,15.3,7.5,29.85,NNE,29,6.0,12.0,71,0.00,,,0.00,meteohub,2013-11-25 10:27:00,
2013-11-25 05:32:00,15.3,7.5,29.86,WNW,302,1.0,12.0,71,0.00,,,0.00,meteohub,2013-11-25 10:32:00,
2013-11-25 05:37:00,15.3,7.5,29.86,North,0,7.0,11.0,71,0.00,,,0.00,meteohub,2013-11-25 10:37:00,
2013-11-25 05:42:00,15.3,7.5,29.86,North,355,0.0,11.0,71,0.00,,,0.00,meteohub,2013-11-25 10:42:00,
2013-11-25 05:47:00,15.1,7.3,29.87,WSW,243,0.0,11.0,71,0.00,,,0.00,meteohub,2013-11-25 10:47:00,
2013-11-25 05:52:00,15.1,7.3,29.87,NNE,18,0.0,11.0,71,0.00,,,0.00,meteohub,2013-11-25 10:52:00,
2013-11-25 05:57:00,14.9,7.2,29.88,NNE,12,3.0,11.0,71,0.00,,,0.00,meteohub,2013-11-25 10:57:00,
2013-11-25 06:03:00,14.7,7.0,29.88,NE,47,0.0,11.0,71,0.00,,,0.00,meteohub,2013-11-25 11:03:00,
2013-11-25 06:08:00,14.7,7.0,29.88,NW,304,5.0,10.0,71,0.00,,,0.00,meteohub,2013-11-25 11:08:00,
2013-11-25 06:13:00,14.7,7.0,29.89,NNE,22,5.0,10.0,71,0.00,,,0.00,meteohub,2013-11-25 11:13:00,
2013-11-25 06:18:00,14.7,7.0,29.89,North,10,5.0,10.0,71,0.00,,,0.00,meteohub,2013-11-25 11:18:00,
2013-11-25 06:23:00,14.7,7.0,29.90,NNE,25,1.0,11.0,71,0.00,,,0.00,meteohub,2013-11-25 11:23:00,
2013-11-25 06:28:00,14.7,7.0,29.90,NNW,327,4.0,11.0,71,0.00,,,0.00,meteohub,2013-11-25 11:28:00,
2013-11-25 06:33:00,14.7,7.0,29.91,North,355,3.0,12.0,71,0.00,,,0.00,meteohub,2013-11-25 11:33:00,
2013-11-25 06:39:00,14.7,7.0,29.91,ENE,62,2.0,12.0,71,0.00,,,0.00,meteohub,2013-11-25 11:39:00,
2013-11-25 06:44:00,14.7,7.0,29.91,WNW,286,5.0,12.0,71,0.00,,,0.00,meteohub,2013-11-25 11:44:00,
2013-11-25 06:49:00,14.5,6.8,29.92,North,355,13.0,13.0,71,0.00,,,0.00,meteohub,2013-11-25 11:49:00,
2013-11-25 06:54:00,14.5,6.8,29.92,NE,44,1.0,13.0,71,0.00,,,0.00,meteohub,2013-11-25 11:54:00,
2013-11-25 06:59:00,14.5,6.8,29.93,NNE,16,2.0,13.0,71,0.00,,,0.00,meteohub,2013-11-25 11:59:00,
2013-11-25 07:04:00,14.4,6.6,29.94,WNW,286,0.0,13.0,71,0.00,,,0.00,meteohub,2013-11-25 12:04:00,
2013-11-25 07:10:00,14.4,7.0,29.94,WSW,246,0.0,8.0,72,0.00,,,0.00,meteohub,2013-11-25 12:10:00,
2013-11-25 07:15:00,14.2,6.8,29.94,SW,232,1.0,6.0,72,0.00,,,0.00,meteohub,2013-11-25 12:15:00,
2013-11-25 07:20:00,14.2,7.2,29.94,WSW,241,4.0,5.0,73,0.00,,,0.00,meteohub,2013-11-25 12:20:00,
2013-11-25 07:25:00,14.2,7.2,29.95,WSW,250,1.0,8.0,73,0.00,,,0.00,meteohub,2013-11-25 12:25:00,
2013-11-25 07:30:00,14.2,7.2,29.95,NNW,333,3.0,8.0,73,0.00,,,0.00,meteohub,2013-11-25 12:30:00,
2013-11-25 07:35:00,14.4,7.3,29.95,West,275,1.0,8.0,73,0.00,,,0.00,meteohub,2013-11-25 12:35:00,
2013-11-25 07:41:00,14.5,7.2,29.95,WNW,302,2.0,8.0,72,0.00,,,0.00,meteohub,2013-11-25 12:41:00,
2013-11-25 07:46:00,14.5,6.8,29.95,SW,231,5.0,8.0,71,0.00,,,0.00,meteohub,2013-11-25 12:46:00,
2013-11-25 07:51:00,14.9,7.2,29.96,NW,307,6.0,9.0,71,0.00,,,0.00,meteohub,2013-11-25 12:51:00,
2013-11-25 07:56:00,15.3,7.2,29.96,WNW,290,6.0,9.0,70,0.00,,,0.00,meteohub,2013-11-25 12:56:00,
2013-11-25 08:01:00,15.4,7.2,29.96,NNE,26,3.0,9.0,69,0.00,,,0.00,meteohub,2013-11-25 13:01:00,
2013-11-25 08:06:00,15.6,7.3,29.96,NE,45,1.0,10.0,69,0.00,,,0.00,meteohub,2013-11-25 13:06:00,
2013-11-25 08:11:00,16.0,7.3,29.97,North,0,3.0,10.0,68,0.00,,,0.00,meteohub,2013-11-25 13:11:00,
2013-11-25 08:16:00,16.0,7.7,29.97,West,264,0.0,10.0,69,0.00,,,0.00,meteohub,2013-11-25 13:16:00,
2013-11-25 08:22:00,15.8,7.2,29.98,NW,304,1.0,10.0,68,0.00,,,0.00,meteohub,2013-11-25 13:22:00,
2013-11-25 08:27:00,16.0,7.3,29.98,West,273,10.0,12.0,68,0.00,,,0.00,meteohub,2013-11-25 13:27:00,
2013-11-25 08:32:00,16.2,7.2,29.98,West,262,1.0,12.0,67,0.00,,,0.00,meteohub,2013-11-25 13:32:00,
2013-11-25 08:37:00,16.3,7.3,29.99,NNE,16,1.0,13.0,67,0.00,,,0.00,meteohub,2013-11-25 13:37:00,
2013-11-25 08:42:00,16.5,7.2,29.99,NNE,27,3.0,13.0,66,0.00,,,0.00,meteohub,2013-11-25 13:42:00,
2013-11-25 08:47:00,16.7,7.3,29.99,WSW,254,3.0,15.0,66,0.00,,,0.00,meteohub,2013-11-25 13:47:00,
2013-11-25 08:52:00,16.9,7.2,29.99,South,176,1.0,15.0,65,0.00,,,0.00,meteohub,2013-11-25 13:52:00,
2013-11-25 08:57:00,17.1,7.3,29.99,WSW,241,5.0,15.0,65,0.00,,,0.00,meteohub,2013-11-25 13:57:00,
2013-11-25 09:02:00,17.2,7.5,29.99,North,5,1.0,9.0,65,0.00,,,0.00,meteohub,2013-11-25 14:02:00,
2013-11-25 09:07:00,17.2,7.2,29.99,WSW,242,4.0,9.0,64,0.00,,,0.00,meteohub,2013-11-25 14:07:00,
2013-11-25 09:12:00,17.4,7.0,30.00,NW,320,0.0,11.0,63,0.00,,,0.00,meteohub,2013-11-25 14:12:00,
2013-11-25 09:17:00,17.6,7.5,30.00,NNE,15,4.0,11.0,64,0.00,,,0.00,meteohub,2013-11-25 14:17:00,
2013-11-25 09:22:00,17.8,7.0,30.01,NNW,327,4.0,14.0,62,0.00,,,0.00,meteohub,2013-11-25 14:22:00,
2013-11-25 09:27:00,17.8,7.0,30.01,WNW,286,5.0,14.0,62,0.00,,,0.00,meteohub,2013-11-25 14:27:00,
2013-11-25 09:33:00,18.0,7.2,30.01,WNW,294,8.0,14.0,62,0.00,,,0.00,meteohub,2013-11-25 14:33:00,
2013-11-25 09:38:00,18.0,6.8,30.01,NW,323,5.0,16.0,61,0.00,,,0.00,meteohub,2013-11-25 14:38:00,
2013-11-25 09:43:00,17.8,6.6,30.01,WNW,286,13.0,16.0,61,0.00,,,0.00,meteohub,2013-11-25 14:43:00,
2013-11-25 09:48:00,18.0,6.8,30.01,North,5,10.0,16.0,61,0.00,,,0.00,meteohub,2013-11-25 14:48:00,
2013-11-25 09:53:00,17.8,6.6,30.01,West,265,11.0,18.0,61,0.00,,,0.00,meteohub,2013-11-25 14:53:00,
2013-11-25 09:58:00,17.8,6.6,30.01,North,355,9.0,19.0,61,0.00,,,0.00,meteohub,2013-11-25 14:58:00,
2013-11-25 10:03:00,18.1,7.0,30.01,North,355,2.0,19.0,61,0.00,,,0.00,meteohub,2013-11-25 15:03:00,
2013-11-25 10:08:00,18.1,7.0,30.01,West,272,3.0,19.0,61,0.00,,,0.00,meteohub,2013-11-25 15:08:00,
2013-11-25 10:14:00,18.3,6.8,30.01,NNW,348,6.0,15.0,60,0.00,,,0.00,meteohub,2013-11-25 15:14:00,
2013-11-25 10:19:00,18.1,6.6,30.01,NNW,337,10.0,15.0,60,0.00,,,0.00,meteohub,2013-11-25 15:19:00,
2013-11-25 10:24:00,18.1,6.6,30.01,NE,45,4.0,19.0,60,0.00,,,0.00,meteohub,2013-11-25 15:24:00,
2013-11-25 10:29:00,18.1,6.6,30.01,NW,317,4.0,19.0,60,0.00,,,0.00,meteohub,2013-11-25 15:29:00,
2013-11-25 10:34:00,18.3,6.4,30.01,NNE,21,10.0,21.0,59,0.00,,,0.00,meteohub,2013-11-25 15:34:00,
2013-11-25 10:39:00,18.3,6.4,30.01,WNW,298,6.0,21.0,59,0.00,,,0.00,meteohub,2013-11-25 15:39:00,
2013-11-25 10:44:00,18.7,6.8,30.01,NNW,342,4.0,21.0,59,0.00,,,0.00,meteohub,2013-11-25 15:44:00,
2013-11-25 10:49:00,18.9,7.0,30.01,West,263,14.0,15.0,59,0.00,,,0.00,meteohub,2013-11-25 15:49:00,
2013-11-25 10:55:00,18.9,6.4,30.01,WNW,298,6.0,15.0,58,0.00,,,0.00,meteohub,2013-11-25 15:55:00,
2013-11-25 11:00:00,19.0,7.2,30.02,WNW,292,3.0,23.0,59,0.00,,,0.00,meteohub,2013-11-25 16:00:00,
2013-11-25 11:05:00,19.6,7.5,30.02,NW,325,11.0,23.0,59,0.00,,,0.00,meteohub,2013-11-25 16:05:00,
2013-11-25 11:10:00,19.0,6.6,30.03,West,279,14.0,19.0,58,0.00,,,0.00,meteohub,2013-11-25 16:10:00,
2013-11-25 11:15:00,19.0,6.6,30.03,NNW,330,4.0,19.0,58,0.00,,,0.00,meteohub,2013-11-25 16:15:00,
2013-11-25 11:21:00,19.0,6.6,30.04,NNW,344,12.0,19.0,58,0.00,,,0.00,meteohub,2013-11-25 16:21:00,
2013-11-25 11:26:00,18.9,6.4,30.03,North,9,4.0,16.0,58,0.00,,,0.00,meteohub,2013-11-25 16:26:00,
2013-11-25 11:31:00,19.2,7.2,30.04,WNW,282,5.0,16.0,59,0.00,,,0.00,meteohub,2013-11-25 16:31:00,
2013-11-25 11:37:00,19.4,7.0,30.03,West,281,5.0,14.0,58,0.00,,,0.00,meteohub,2013-11-25 16:37:00,
2013-11-25 11:42:00,19.2,6.8,30.03,WNW,292,2.0,13.0,58,0.00,,,0.00,meteohub,2013-11-25 16:42:00,
2013-11-25 11:47:00,19.6,6.8,30.03,NNW,337,0.0,14.0,57,0.00,,,0.00,meteohub,2013-11-25 16:47:00,
2013-11-25 11:52:00,19.6,6.8,30.04,West,269,3.0,17.0,57,0.00,,,0.00,meteohub,2013-11-25 16:52:00,
2013-11-25 11:58:00,19.6,6.8,30.04,NW,311,4.0,17.0,57,0.00,,,0.00,meteohub,2013-11-25 16:58:00,
2013-11-25 12:03:00,19.8,7.0,30.04,NNW,344,2.0,17.0,57,0.00,,,0.00,meteohub,2013-11-25 17:03:00,
2013-11-25 12:08:00,19.6,6.4,30.04,North,11,2.0,10.0,56,0.00,,,0.00,meteohub,2013-11-25 17:08:00,
2013-11-25 12:13:00,19.4,6.6,30.04,WSW,242,9.0,17.0,57,0.00,,,0.00,meteohub,2013-11-25 17:13:00,
2013-11-25 12:19:00,19.2,6.4,30.04,NNW,347,8.0,17.0,57,0.00,,,0.00,meteohub,2013-11-25 17:19:00,
2013-11-25 12:24:00,19.6,7.2,30.04,NE,40,6.0,17.0,58,0.00,,,0.00,meteohub,2013-11-25 17:24:00,
2013-11-25 12:29:00,19.8,7.3,30.04,North,350,6.0,17.0,58,0.00,,,0.00,meteohub,2013-11-25 17:29:00,
2013-11-25 12:34:00,19.9,7.5,30.04,NNW,333,2.0,14.0,58,0.00,,,0.00,meteohub,2013-11-25 17:34:00,
2013-11-25 12:39:00,19.9,7.2,30.04,NE,55,3.0,12.0,57,0.00,,,0.00,meteohub,2013-11-25 17:39:00,
2013-11-25 12:44:00,20.1,7.3,30.04,NW,311,5.0,12.0,57,0.00,,,0.00,meteohub,2013-11-25 17:44:00,
2013-11-25 12:49:00,19.9,6.4,30.03,North,355,2.0,12.0,55,0.00,,,0.00,meteohub,2013-11-25 17:49:00,
2013-11-25 12:54:00,19.9,6.4,30.03,WNW,300,4.0,15.0,55,0.00,,,0.00,meteohub,2013-11-25 17:54:00,
2013-11-25 13:00:00,20.1,6.6,30.03,NNE,17,3.0,15.0,55,0.00,,,0.00,meteohub,2013-11-25 18:00:00,
2013-11-25 13:05:00,20.1,7.0,30.03,North,351,6.0,11.0,56,0.00,,,0.00,meteohub,2013-11-25 18:05:00,
2013-11-25 13:10:00,20.1,7.0,30.04,North,5,5.0,14.0,56,0.00,,,0.00,meteohub,2013-11-25 18:10:00,
2013-11-25 13:15:00,20.1,7.0,30.04,WNW,292,5.0,13.0,56,0.00,,,0.00,meteohub,2013-11-25 18:15:00,
2013-11-25 13:20:00,20.7,7.5,30.04,North,355,5.0,13.0,56,0.00,,,0.00,meteohub,2013-11-25 18:20:00,
2013-11-25 13:25:00,20.8,7.2,30.04,West,264,1.0,13.0,55,0.00,,,0.00,meteohub,2013-11-25 18:25:00,
2013-11-25 13:31:00,20.7,6.6,30.04,North,5,6.0,17.0,54,0.00,,,0.00,meteohub,2013-11-25 18:31:00,
2013-11-25 13:36:00,20.7,6.6,30.04,North,351,9.0,17.0,54,0.00,,,0.00,meteohub,2013-11-25 18:36:00,
2013-11-25 13:41:00,20.7,6.6,30.05,North,355,3.0,17.0,54,0.00,,,0.00,meteohub,2013-11-25 18:41:00,
2013-11-25 13:46:00,20.7,6.6,30.05,WSW,256,7.0,12.0,54,0.00,,,0.00,meteohub,2013-11-25 18:46:00,
2013-11-25 13:52:00,20.8,6.8,30.05,North,0,6.0,12.0,54,0.00,,,0.00,meteohub,2013-11-25 18:52:00,
2013-11-25 13:57:00,21.0,7.0,30.06,WSW,239,0.0,12.0,54,0.00,,,0.00,meteohub,2013-11-25 18:57:00,
2013-11-25 14:02:00,21.2,6.3,30.06,NNW,342,6.0,12.0,52,0.00,,,0.00,meteohub,2013-11-25 19:02:00,
2013-11-25 14:07:00,21.0,6.1,30.06,North,355,3.0,12.0,52,0.00,,,0.00,meteohub,2013-11-25 19:07:00,
2013-11-25 14:12:00,21.0,6.1,30.06,NE,34,1.0,12.0,52,0.00,,,0.00,meteohub,2013-11-25 19:12:00,
2013-11-25 14:17:00,21.0,5.7,30.06,North,5,3.0,12.0,51,0.00,,,0.00,meteohub,2013-11-25 19:17:00,
2013-11-25 14:22:00,20.8,5.5,30.06,NNW,341,6.0,11.0,51,0.00,,,0.00,meteohub,2013-11-25 19:22:00,
2013-11-25 14:28:00,21.0,6.1,30.06,NNW,340,4.0,11.0,52,0.00,,,0.00,meteohub,2013-11-25 19:28:00,
2013-11-25 14:33:00,21.0,5.4,30.06,NW,326,3.0,11.0,50,0.00,,,0.00,meteohub,2013-11-25 19:33:00,
2013-11-25 14:38:00,20.7,5.0,30.06,NNW,346,1.0,9.0,50,0.00,,,0.00,meteohub,2013-11-25 19:38:00,
2013-11-25 14:43:00,20.3,5.0,30.06,WNW,294,5.0,9.0,51,0.00,,,0.00,meteohub,2013-11-25 19:43:00,
2013-11-25 14:48:00,19.9,4.6,30.06,North,355,1.0,10.0,51,0.00,,,0.00,meteohub,2013-11-25 19:48:00,
2013-11-25 14:53:00,19.9,5.2,30.06,NNE,25,1.0,10.0,52,0.00,,,0.00,meteohub,2013-11-25 19:53:00,
2013-11-25 14:58:00,19.9,5.5,30.07,NW,307,2.0,10.0,53,0.00,,,0.00,meteohub,2013-11-25 19:58:00,
2013-11-25 15:03:00,19.9,5.9,30.07,WNW,292,2.0,7.0,54,0.00,,,0.00,meteohub,2013-11-25 20:03:00,
2013-11-25 15:09:00,19.8,5.4,30.07,North,10,2.0,7.0,53,0.00,,,0.00,meteohub,2013-11-25 20:09:00,
2013-11-25 15:14:00,19.8,5.7,30.08,West,273,2.0,11.0,54,0.00,,,0.00,meteohub,2013-11-25 20:14:00,
2013-11-25 15:19:00,19.6,5.7,30.08,North,355,4.0,11.0,54,0.00,,,0.00,meteohub,2013-11-25 20:19:00,
2013-11-25 15:24:00,19.6,5.7,30.09,NNW,335,4.0,12.0,54,0.00,,,0.00,meteohub,2013-11-25 20:24:00,
2013-11-25 15:29:00,19.2,5.4,30.09,NW,309,2.0,12.0,54,0.00,,,0.00,meteohub,2013-11-25 20:29:00,
2013-11-25 15:34:00,19.2,4.8,30.09,ENE,65,1.0,12.0,53,0.00,,,0.00,meteohub,2013-11-25 20:34:00,
2013-11-25 15:39:00,19.0,4.6,30.09,NNW,327,3.0,7.0,53,0.00,,,0.00,meteohub,2013-11-25 20:39:00,
2013-11-25 15:44:00,19.0,4.6,30.09,ENE,61,3.0,6.0,53,0.00,,,0.00,meteohub,2013-11-25 20:44:00,
2013-11-25 15:50:00,18.9,5.0,30.10,WNW,286,4.0,6.0,54,0.00,,,0.00,meteohub,2013-11-25 20:50:00,
2013-11-25 15:55:00,18.9,5.4,30.10,WNW,299,3.0,6.0,55,0.00,,,0.00,meteohub,2013-11-25 20:55:00,
2013-11-25 16:00:00,18.7,5.5,30.10,NNW,331,0.0,7.0,56,0.00,,,0.00,meteohub,2013-11-25 21:00:00,
2013-11-25 16:05:00,18.5,5.7,30.10,NNE,16,0.0,6.0,57,0.00,,,0.00,meteohub,2013-11-25 21:05:00,
2013-11-25 16:10:00,18.3,6.1,30.10,NW,321,0.0,5.0,58,0.00,,,0.00,meteohub,2013-11-25 21:10:00,
2013-11-25 16:15:00,18.1,6.3,30.10,NW,321,0.0,3.0,59,0.00,,,0.00,meteohub,2013-11-25 21:15:00,
2013-11-25 16:20:00,18.0,6.4,30.09,NW,321,0.0,2.0,60,0.00,,,0.00,meteohub,2013-11-25 21:20:00,
2013-11-25 16:26:00,18.0,6.8,30.09,North,5,0.0,2.0,61,0.00,,,0.00,meteohub,2013-11-25 21:26:00,
2013-11-25 16:31:00,17.8,7.0,30.10,North,5,0.0,2.0,62,0.00,,,0.00,meteohub,2013-11-25 21:31:00,
2013-11-25 16:36:00,17.4,7.0,30.10,NNW,327,0.0,2.0,63,0.00,,,0.00,meteohub,2013-11-25 21:36:00,
2013-11-25 16:41:00,17.4,7.0,30.10,NNW,327,0.0,1.0,63,0.00,,,0.00,meteohub,2013-11-25 21:41:00,
2013-11-25 16:47:00,17.1,7.0,30.09,NNW,327,1.0,1.0,64,0.00,,,0.00,meteohub,2013-11-25 21:47:00,
2013-11-25 16:52:00,17.1,7.3,30.09,West,277,3.0,3.0,65,0.00,,,0.00,meteohub,2013-11-25 21:52:00,
2013-11-25 16:57:00,17.2,7.5,30.09,West,279,0.0,3.0,65,0.00,,,0.00,meteohub,2013-11-25 21:57:00,
2013-11-25 17:02:00,17.2,7.5,30.09,North,5,0.0,3.0,65,0.00,,,0.00,meteohub,2013-11-25 22:02:00,
2013-11-25 17:07:00,17.2,7.9,30.09,NNW,338,0.0,3.0,66,0.00,,,0.00,meteohub,2013-11-25 22:07:00,
2013-11-25 17:13:00,17.1,7.7,30.09,SW,221,0.0,4.0,66,0.00,,,0.00,meteohub,2013-11-25 22:13:00,
2013-11-25 17:18:00,17.1,7.7,30.09,ESE,119,1.0,4.0,66,0.00,,,0.00,meteohub,2013-11-25 22:18:00,
2013-11-25 17:23:00,17.1,7.7,30.09,WNW,294,4.0,4.0,66,0.00,,,0.00,meteohub,2013-11-25 22:23:00,
2013-11-25 17:28:00,17.1,7.7,30.09,North,355,0.0,5.0,66,0.00,,,0.00,meteohub,2013-11-25 22:28:00,
2013-11-25 17:33:00,17.1,7.7,30.09,North,355,0.0,5.0,66,0.00,,,0.00,meteohub,2013-11-25 22:33:00,
2013-11-25 17:38:00,17.1,7.7,30.09,North,355,0.0,5.0,66,0.00,,,0.00,meteohub,2013-11-25 22:38:00,
2013-11-25 17:43:00,17.1,7.3,30.09,WNW,293,0.0,3.0,65,0.00,,,0.00,meteohub,2013-11-25 22:43:00,
2013-11-25 17:49:00,17.1,7.7,30.08,WNW,294,0.0,6.0,66,0.00,,,0.00,meteohub,2013-11-25 22:49:00,
2013-11-25 17:54:00,16.9,7.5,30.08,NW,315,0.0,6.0,66,0.00,,,0.00,meteohub,2013-11-25 22:54:00,
2013-11-25 17:59:00,16.9,7.5,30.09,NW,309,1.0,6.0,66,0.00,,,0.00,meteohub,2013-11-25 22:59:00,
2013-11-25 18:04:00,16.9,7.5,30.09,SW,226,0.0,3.0,66,0.00,,,0.00,meteohub,2013-11-25 23:04:00,
2013-11-25 18:09:00,16.7,7.3,30.10,SW,226,0.0,6.0,66,0.00,,,0.00,meteohub,2013-11-25 23:09:00,
2013-11-25 18:14:00,16.3,7.3,30.10,SW,226,0.0,6.0,67,0.00,,,0.00,meteohub,2013-11-25 23:14:00,
2013-11-25 18:19:00,16.2,7.2,30.10,SW,226,1.0,6.0,67,0.00,,,0.00,meteohub,2013-11-25 23:19:00,
2013-11-25 18:24:00,16.2,7.2,30.10,SW,226,0.0,2.0,67,0.00,,,0.00,meteohub,2013-11-25 23:24:00,
2013-11-25 18:30:00,15.8,7.2,30.10,SW,226,0.0,2.0,68,0.00,,,0.00,meteohub,2013-11-25 23:30:00,
2013-11-25 18:35:00,15.6,7.3,30.11,SW,226,0.0,2.0,69,0.00,,,0.00,meteohub,2013-11-25 23:35:00,
2013-11-25 18:40:00,15.6,7.3,30.11,SW,226,0.0,2.0,69,0.00,,,0.00,meteohub,2013-11-25 23:40:00,
2013-11-25 18:45:00,15.8,7.2,30.11,SW,226,0.0,2.0,68,0.00,,,0.00,meteohub,2013-11-25 23:45:00,
2013-11-25 18:50:00,16.0,7.3,30.11,SW,227,0.0,2.0,68,0.00,,,0.00,meteohub,2013-11-25 23:50:00,
2013-11-25 18:55:00,16.2,7.2,30.11,SW,216,0.0,2.0,67,0.00,,,0.00,meteohub,2013-11-25 23:55:00,
2013-11-25 19:01:00,16.2,7.2,30.11,SSW,205,2.0,2.0,67,0.00,,,0.00,meteohub,2013-11-26 00:01:00,
2013-11-25 19:06:00,16.3,7.3,30.11,NW,313,0.0,4.0,67,0.00,,,0.00,meteohub,2013-11-26 00:06:00,
2013-11-25 19:11:00,16.3,7.0,30.11,WSW,257,0.0,4.0,66,0.00,,,0.00,meteohub,2013-11-26 00:11:00,
2013-11-25 19:16:00,16.5,6.8,30.11,WSW,256,1.0,4.0,65,0.00,,,0.00,meteohub,2013-11-26 00:16:00,
2013-11-25 19:21:00,16.5,7.2,30.11,WSW,256,0.0,4.0,66,0.00,,,0.00,meteohub,2013-11-26 00:21:00,
2013-11-25 19:27:00,16.5,7.2,30.11,SW,236,0.0,4.0,66,0.00,,,0.00,meteohub,2013-11-26 00:27:00,
2013-11-25 19:32:00,16.3,7.7,30.12,SW,236,0.0,2.0,68,0.00,,,0.00,meteohub,2013-11-26 00:32:00,
2013-11-25 19:37:00,16.2,7.5,30.11,SW,236,0.0,2.0,68,0.00,,,0.00,meteohub,2013-11-26 00:37:00,
2013-11-25 19:42:00,16.2,7.5,30.11,WSW,237,0.0,2.0,68,0.00,,,0.00,meteohub,2013-11-26 00:42:00,
2013-11-25 19:48:00,16.2,7.2,30.11,NNE,14,0.0,2.0,67,0.00,,,0.00,meteohub,2013-11-26 00:48:00,
2013-11-25 19:53:00,16.2,7.2,30.11,NNE,14,0.0,2.0,67,0.00,,,0.00,meteohub,2013-11-26 00:53:00,
2013-11-25 19:58:00,16.0,7.0,30.10,NNE,14,0.0,2.0,67,0.00,,,0.00,meteohub,2013-11-26 00:58:00,
2013-11-25 20:03:00,16.0,7.7,30.10,NNE,14,0.0,0.0,69,0.00,,,0.00,meteohub,2013-11-26 01:03:00,
2013-11-25 20:08:00,15.8,7.5,30.10,NNE,14,0.0,0.0,69,0.00,,,0.00,meteohub,2013-11-26 01:08:00,
2013-11-25 20:13:00,15.6,7.0,30.10,NW,309,0.0,0.0,68,0.00,,,0.00,meteohub,2013-11-26 01:13:00,
2013-11-25 20:18:00,15.6,6.3,30.10,NW,309,0.0,2.0,66,0.00,,,0.00,meteohub,2013-11-26 01:18:00,
2013-11-25 20:23:00,15.6,6.6,30.11,NW,309,0.0,2.0,67,0.00,,,0.00,meteohub,2013-11-26 01:23:00,
2013-11-25 20:29:00,15.6,6.6,30.11,NW,309,0.0,2.0,67,0.00,,,0.00,meteohub,2013-11-26 01:29:00,
2013-11-25 20:34:00,15.6,6.6,30.11,NW,304,1.0,1.0,67,0.00,,,0.00,meteohub,2013-11-26 01:34:00,
2013-11-25 20:39:00,16.0,6.6,30.11,West,267,0.0,1.0,66,0.00,,,0.00,meteohub,2013-11-26 01:39:00,
2013-11-25 20:44:00,16.2,6.8,30.11,West,267,0.0,4.0,66,0.00,,,0.00,meteohub,2013-11-26 01:44:00,
2013-11-25 20:49:00,16.2,6.8,30.11,WNW,290,0.0,4.0,66,0.00,,,0.00,meteohub,2013-11-26 01:49:00,
2013-11-25 20:54:00,16.2,7.2,30.10,WNW,290,0.0,4.0,67,0.00,,,0.00,meteohub,2013-11-26 01:54:00,
2013-11-25 21:00:00,16.2,7.2,30.10,WNW,290,0.0,2.0,67,0.00,,,0.00,meteohub,2013-11-26 02:00:00,
2013-11-25 21:05:00,16.3,7.3,30.10,WNW,290,0.0,2.0,67,0.00,,,0.00,meteohub,2013-11-26 02:05:00,
2013-11-25 21:10:00,16.3,7.3,30.10,WNW,290,0.0,0.0,67,0.00,,,0.00,meteohub,2013-11-26 02:10:00,
2013-11-25 21:15:00,16.5,7.2,30.10,WNW,288,0.0,1.0,66,0.00,,,0.00,meteohub,2013-11-26 02:15:00,
2013-11-25 21:20:00,16.9,7.9,30.10,WSW,255,0.0,3.0,67,0.00,,,0.00,meteohub,2013-11-26 02:20:00,
2013-11-25 21:25:00,16.9,7.5,30.10,NE,34,0.0,3.0,66,0.00,,,0.00,meteohub,2013-11-26 02:25:00,
2013-11-25 21:31:00,17.1,8.1,30.10,NE,34,0.0,3.0,67,0.00,,,0.00,meteohub,2013-11-26 02:31:00,
2013-11-25 21:36:00,17.1,7.7,30.10,NE,34,0.0,3.0,66,0.00,,,0.00,meteohub,2013-11-26 02:36:00,
2013-11-25 21:41:00,17.1,8.1,30.10,NE,34,0.0,1.0,67,0.00,,,0.00,meteohub,2013-11-26 02:41:00,
2013-11-25 21:46:00,17.1,7.7,30.09,NE,34,0.0,1.0,66,0.00,,,0.00,meteohub,2013-11-26 02:46:00,
2013-11-25 21:51:00,17.1,8.1,30.09,NE,34,0.0,0.0,67,0.00,,,0.00,meteohub,2013-11-26 02:51:00,
2013-11-25 21:57:00,17.2,8.4,30.09,ENE,74,0.0,1.0,68,0.00,,,0.00,meteohub,2013-11-26 02:57:00,
2013-11-25 22:02:00,17.2,8.4,30.10,ENE,74,0.0,1.0,68,0.00,,,0.00,meteohub,2013-11-26 03:02:00,
2013-11-25 22:07:00,17.2,8.8,30.10,ENE,74,0.0,1.0,69,0.00,,,0.00,meteohub,2013-11-26 03:07:00,
2013-11-25 22:12:00,17.2,8.8,30.10,ENE,74,0.0,0.0,69,0.00,,,0.00,meteohub,2013-11-26 03:12:00,
2013-11-25 22:17:00,17.4,8.6,30.11,SSE,148,0.0,1.0,68,0.00,,,0.00,meteohub,2013-11-26 03:17:00,
2013-11-25 22:22:00,17.4,9.0,30.11,South,173,0.0,1.0,69,0.00,,,0.00,meteohub,2013-11-26 03:22:00,
2013-11-25 22:27:00,17.6,9.9,30.11,South,173,0.0,2.0,71,0.00,,,0.00,meteohub,2013-11-26 03:27:00,
2013-11-25 22:32:00,17.6,10.0,30.11,South,173,0.0,2.0,72,0.00,,,0.00,meteohub,2013-11-26 03:32:00,
2013-11-25 22:37:00,17.4,10.6,30.11,South,173,0.0,1.0,74,0.00,,,0.00,meteohub,2013-11-26 03:37:00,
2013-11-25 22:42:00,17.4,10.9,30.11,SE,144,2.0,2.0,75,0.00,,,0.00,meteohub,2013-11-26 03:42:00,
2013-11-25 22:48:00,17.4,11.1,30.10,SE,143,1.0,2.0,76,0.00,,,0.00,meteohub,2013-11-26 03:48:00,
2013-11-25 22:53:00,17.2,11.3,30.11,SE,144,1.0,3.0,77,0.00,,,0.00,meteohub,2013-11-26 03:53:00,
2013-11-25 22:58:00,17.2,11.3,30.11,SE,134,0.0,4.0,77,0.00,,,0.00,meteohub,2013-11-26 03:58:00,
2013-11-25 23:03:00,17.2,11.5,30.11,SE,134,1.0,4.0,78,0.00,,,0.00,meteohub,2013-11-26 04:03:00,
2013-11-25 23:08:00,17.2,11.5,30.11,SE,134,0.0,4.0,78,0.00,,,0.00,meteohub,2013-11-26 04:08:00,
2013-11-25 23:13:00,17.2,11.8,30.11,SE,136,0.0,3.0,79,0.00,,,0.00,meteohub,2013-11-26 04:13:00,
2013-11-25 23:18:00,17.2,12.2,30.11,SSE,153,3.0,3.0,80,0.00,,,0.00,meteohub,2013-11-26 04:18:00,
2013-11-25 23:24:00,17.2,12.4,30.11,South,188,0.0,3.0,81,0.00,,,0.00,meteohub,2013-11-26 04:24:00,
2013-11-25 23:29:00,17.2,12.7,30.11,South,180,0.0,5.0,82,0.00,,,0.00,meteohub,2013-11-26 04:29:00,
2013-11-25 23:34:00,17.2,12.9,30.10,South,190,0.0,5.0,83,0.00,,,0.00,meteohub,2013-11-26 04:34:00,
2013-11-25 23:39:00,17.2,12.9,30.10,SSW,196,2.0,5.0,83,0.00,,,0.00,meteohub,2013-11-26 04:39:00,
2013-11-25 23:44:00,17.2,13.3,30.11,South,190,0.0,5.0,84,0.00,,,0.00,meteohub,2013-11-26 04:44:00,
2013-11-25 23:49:00,17.2,13.5,30.10,SSE,147,2.0,5.0,85,0.00,,,0.00,meteohub,2013-11-26 04:49:00,
2013-11-25 23:54:00,17.2,13.5,30.10,SSE,164,0.0,3.0,85,0.00,,,0.00,meteohub,2013-11-26 04:54:00,
2013-11-25 23:59:00,17.2,13.3,30.11,South,169,0.0,4.0,84,0.00,,,0.00,meteohub,2013-11-26 04:59:00,